Year,Month,Day,Hour,Minute,Value (Times are PST for temperature in C)
2013,06,23,00,00,14.90
2013,06,23,00,01,14.80
2013,06,23,00,02,14.80
2013,06,23,00,03,14.80
2013,06,23,00,04,14.80
2013,06,23,00,05,14.80
2013,06,23,00,06,14.80
2013,06,23,00,07,14.80
2013,06,23,00,08,14.80
2013,06,23,00,09,14.80
2013,06,23,00,10,14.80
2013,06,23,00,11,14.80
2013,06,23,00,12,14.80
2013,06,23,00,13,14.80
2013,06,23,00,14,14.80
2013,06,23,00,15,14.80
2013,06,23,00,16,14.80
2013,06,23,00,17,14.70
2013,06,23,00,18,14.70
2013,06,23,00,19,14.70
2013,06,23,00,20,14.70
2013,06,23,00,21,14.70
2013,06,23,00,22,14.70
2013,06,23,00,23,14.70
2013,06,23,00,24,14.70
2013,06,23,00,25,14.70
2013,06,23,00,26,14.70
2013,06,23,00,27,14.70
2013,06,23,00,28,14.70
2013,06,23,00,29,14.70
2013,06,23,00,30,14.70
2013,06,23,00,31,14.70
2013,06,23,00,32,14.70
2013,06,23,00,33,14.70
2013,06,23,00,34,14.60
2013,06,23,00,35,14.60
2013,06,23,00,36,14.60
2013,06,23,00,37,14.60
2013,06,23,00,38,14.60
2013,06,23,00,39,14.60
2013,06,23,00,40,14.60
2013,06,23,00,41,14.70
2013,06,23,00,42,14.70
2013,06,23,00,43,14.80
2013,06,23,00,44,14.80
2013,06,23,00,45,14.80
2013,06,23,00,46,14.90
2013,06,23,00,47,15.00
2013,06,23,00,48,15.00
2013,06,23,00,49,15.10
2013,06,23,00,50,15.20
2013,06,23,00,51,15.20
2013,06,23,00,52,15.20
2013,06,23,00,53,15.30
2013,06,23,00,54,15.30
2013,06,23,00,55,15.30
2013,06,23,00,56,15.30
2013,06,23,00,57,15.30
2013,06,23,00,58,15.40
2013,06,23,00,59,15.40
2013,06,23,01,00,15.40
2013,06,23,01,01,15.40
2013,06,23,01,02,15.40
2013,06,23,01,03,15.40
2013,06,23,01,04,15.40
2013,06,23,01,05,15.40
2013,06,23,01,06,15.40
2013,06,23,01,07,15.40
2013,06,23,01,08,15.40
2013,06,23,01,09,15.30
2013,06,23,01,10,15.30
2013,06,23,01,11,15.30
2013,06,23,01,12,15.30
2013,06,23,01,13,15.30
2013,06,23,01,14,15.30
2013,06,23,01,15,15.30
2013,06,23,01,16,15.30
2013,06,23,01,17,15.40
2013,06,23,01,18,15.40
2013,06,23,01,19,15.40
2013,06,23,01,20,15.50
2013,06,23,01,21,15.50
2013,06,23,01,22,15.50
2013,06,23,01,23,15.60
2013,06,23,01,24,15.60
2013,06,23,01,25,15.70
2013,06,23,01,26,15.70
2013,06,23,01,27,15.80
2013,06,23,01,28,15.80
2013,06,23,01,29,15.80
2013,06,23,01,30,15.80
2013,06,23,01,31,15.80
2013,06,23,01,32,15.90
2013,06,23,01,33,15.90
2013,06,23,01,34,15.90
2013,06,23,01,35,15.90
2013,06,23,01,36,16.00
2013,06,23,01,37,16.10
2013,06,23,01,38,16.10
2013,06,23,01,39,16.10
2013,06,23,01,40,16.10
2013,06,23,01,41,16.10
2013,06,23,01,42,16.10
2013,06,23,01,43,16.10
2013,06,23,01,44,16.10
2013,06,23,01,45,16.10
2013,06,23,01,46,16.10
2013,06,23,01,47,16.10
2013,06,23,01,48,16.10
2013,06,23,01,49,16.10
2013,06,23,01,50,16.10
2013,06,23,01,51,16.10
2013,06,23,01,52,16.10
2013,06,23,01,53,16.10
2013,06,23,01,54,16.10
2013,06,23,01,55,16.10
2013,06,23,01,56,16.10
2013,06,23,01,57,16.10
2013,06,23,01,58,16.10
2013,06,23,01,59,16.10
2013,06,23,02,00,16.20
2013,06,23,02,01,16.20
2013,06,23,02,02,16.20
2013,06,23,02,03,16.20
2013,06,23,02,04,16.20
2013,06,23,02,05,16.20
2013,06,23,02,06,16.20
2013,06,23,02,07,16.20
2013,06,23,02,08,16.20
2013,06,23,02,09,16.10
2013,06,23,02,10,16.10
2013,06,23,02,11,16.10
2013,06,23,02,12,16.10
2013,06,23,02,13,16.10
2013,06,23,02,14,16.00
2013,06,23,02,15,15.80
2013,06,23,02,16,15.60
2013,06,23,02,17,15.40
2013,06,23,02,18,15.10
2013,06,23,02,19,14.90
2013,06,23,02,20,14.60
2013,06,23,02,21,14.40
2013,06,23,02,22,14.30
2013,06,23,02,23,14.20
2013,06,23,02,24,14.10
2013,06,23,02,25,14.00
2013,06,23,02,26,13.90
2013,06,23,02,27,13.90
2013,06,23,02,28,13.90
2013,06,23,02,29,13.80
2013,06,23,02,30,13.80
2013,06,23,02,31,13.80
2013,06,23,02,32,13.80
2013,06,23,02,33,13.90
2013,06,23,02,34,13.90
2013,06,23,02,35,14.00
2013,06,23,02,36,14.10
2013,06,23,02,37,14.20
2013,06,23,02,38,14.50
2013,06,23,02,39,14.60
2013,06,23,02,40,14.80
2013,06,23,02,41,14.90
2013,06,23,02,42,15.00
2013,06,23,02,43,15.10
2013,06,23,02,44,15.20
2013,06,23,02,45,15.30
2013,06,23,02,46,15.40
2013,06,23,02,47,15.50
2013,06,23,02,48,15.50
2013,06,23,02,49,15.60
2013,06,23,02,50,15.60
2013,06,23,02,51,15.70
2013,06,23,02,52,15.70
2013,06,23,02,53,15.70
2013,06,23,02,54,15.80
2013,06,23,02,55,15.80
2013,06,23,02,56,15.80
2013,06,23,02,57,15.80
2013,06,23,02,58,15.90
2013,06,23,02,59,15.90
2013,06,23,03,00,15.90
2013,06,23,03,01,15.90
2013,06,23,03,02,15.90
2013,06,23,03,03,15.90
2013,06,23,03,04,15.90
2013,06,23,03,05,16.00
2013,06,23,03,06,16.10
2013,06,23,03,07,16.10
2013,06,23,03,08,16.10
2013,06,23,03,09,16.10
2013,06,23,03,10,16.10
2013,06,23,03,11,16.10
2013,06,23,03,12,16.10
2013,06,23,03,13,16.10
2013,06,23,03,14,16.10
2013,06,23,03,15,16.10
2013,06,23,03,16,16.10
2013,06,23,03,17,16.10
2013,06,23,03,18,16.00
2013,06,23,03,19,15.80
2013,06,23,03,20,15.70
2013,06,23,03,21,15.40
2013,06,23,03,22,15.30
2013,06,23,03,23,15.10
2013,06,23,03,24,15.00
2013,06,23,03,25,14.80
2013,06,23,03,26,14.80
2013,06,23,03,27,14.70
2013,06,23,03,28,14.70
2013,06,23,03,29,14.70
2013,06,23,03,30,14.70
2013,06,23,03,31,14.70
2013,06,23,03,32,14.80
2013,06,23,03,33,14.80
2013,06,23,03,34,14.80
2013,06,23,03,35,14.80
2013,06,23,03,36,14.80
2013,06,23,03,37,14.80
2013,06,23,03,38,14.80
2013,06,23,03,39,14.80
2013,06,23,03,40,14.80
2013,06,23,03,41,14.90
2013,06,23,03,42,14.90
2013,06,23,03,43,14.90
2013,06,23,03,44,14.90
2013,06,23,03,45,15.00
2013,06,23,03,46,15.00
2013,06,23,03,47,15.00
2013,06,23,03,48,15.00
2013,06,23,03,49,15.10
2013,06,23,03,50,15.10
2013,06,23,03,51,15.20
2013,06,23,03,52,15.20
2013,06,23,03,53,15.20
2013,06,23,03,54,15.20
2013,06,23,03,55,15.30
2013,06,23,03,56,15.30
2013,06,23,03,57,15.30
2013,06,23,03,58,15.30
2013,06,23,03,59,15.30
2013,06,23,04,00,15.40
2013,06,23,04,01,15.40
2013,06,23,04,02,15.40
2013,06,23,04,03,15.40
2013,06,23,04,04,15.50
2013,06,23,04,05,15.50
2013,06,23,04,06,15.50
2013,06,23,04,07,15.50
2013,06,23,04,08,15.60
2013,06,23,04,09,15.60
2013,06,23,04,10,15.60
2013,06,23,04,11,15.60
2013,06,23,04,12,15.60
2013,06,23,04,13,15.70
2013,06,23,04,14,15.70
2013,06,23,04,15,15.80
2013,06,23,04,16,15.80
2013,06,23,04,17,15.80
2013,06,23,04,18,15.80
2013,06,23,04,19,15.80
2013,06,23,04,20,15.80
2013,06,23,04,21,15.80
2013,06,23,04,22,15.80
2013,06,23,04,23,15.80
2013,06,23,04,24,15.80
2013,06,23,04,25,15.80
2013,06,23,04,26,15.80
2013,06,23,04,27,15.80
2013,06,23,04,28,15.80
2013,06,23,04,29,15.90
2013,06,23,04,30,15.90
2013,06,23,04,31,15.90
2013,06,23,04,32,15.90
2013,06,23,04,33,16.00
2013,06,23,04,34,16.10
2013,06,23,04,35,16.10
2013,06,23,04,36,15.90
2013,06,23,04,37,15.70
2013,06,23,04,38,15.50
2013,06,23,04,39,15.10
2013,06,23,04,40,14.90
2013,06,23,04,41,14.60
2013,06,23,04,42,14.30
2013,06,23,04,43,14.10
2013,06,23,04,44,13.90
2013,06,23,04,45,13.80
2013,06,23,04,46,13.70
2013,06,23,04,47,13.60
2013,06,23,04,48,13.50
2013,06,23,04,49,13.40
2013,06,23,04,50,13.40
2013,06,23,04,51,13.30
2013,06,23,04,52,13.30
2013,06,23,04,53,13.20
2013,06,23,04,54,13.10
2013,06,23,04,55,13.00
2013,06,23,04,56,13.00
2013,06,23,04,57,12.90
2013,06,23,04,58,12.90
2013,06,23,04,59,12.80
2013,06,23,05,00,12.80
2013,06,23,05,01,12.80
2013,06,23,05,02,12.80
2013,06,23,05,03,12.80
2013,06,23,05,04,12.70
2013,06,23,05,05,12.70
2013,06,23,05,06,12.70
2013,06,23,05,07,12.70
2013,06,23,05,08,12.70
2013,06,23,05,09,12.70
2013,06,23,05,10,12.70
2013,06,23,05,11,12.70
2013,06,23,05,12,12.70
2013,06,23,05,13,12.70
2013,06,23,05,14,12.60
2013,06,23,05,15,12.60
2013,06,23,05,16,12.60
2013,06,23,05,17,12.60
2013,06,23,05,18,12.60
2013,06,23,05,19,12.60
2013,06,23,05,20,12.60
2013,06,23,05,21,12.60
2013,06,23,05,22,12.60
2013,06,23,05,23,12.70
2013,06,23,05,24,12.70
2013,06,23,05,25,13.00
2013,06,23,05,26,13.30
2013,06,23,05,27,13.40
2013,06,23,05,28,13.60
2013,06,23,05,29,13.70
2013,06,23,05,30,13.80
2013,06,23,05,31,13.90
2013,06,23,05,32,14.00
2013,06,23,05,33,14.20
2013,06,23,05,34,14.30
2013,06,23,05,35,14.40
2013,06,23,05,36,14.50
2013,06,23,05,37,14.50
2013,06,23,05,38,14.60
2013,06,23,05,39,14.70
2013,06,23,05,40,14.80
2013,06,23,05,41,14.90
2013,06,23,05,42,14.90
2013,06,23,05,43,15.00
2013,06,23,05,44,15.10
2013,06,23,05,45,15.10
2013,06,23,05,46,15.20
2013,06,23,05,47,15.30
2013,06,23,05,48,15.30
2013,06,23,05,49,15.30
2013,06,23,05,50,15.40
2013,06,23,05,51,15.40
2013,06,23,05,52,15.50
2013,06,23,05,53,15.50
2013,06,23,05,54,15.50
2013,06,23,05,55,15.60
2013,06,23,05,56,15.60
2013,06,23,05,57,15.60
2013,06,23,05,58,15.70
2013,06,23,05,59,15.70
2013,06,23,06,00,15.70
2013,06,23,06,01,15.70
2013,06,23,06,02,15.80
2013,06,23,06,03,15.80
2013,06,23,06,04,15.80
2013,06,23,06,05,15.80
2013,06,23,06,06,15.80
2013,06,23,06,07,15.80
2013,06,23,06,08,15.80
2013,06,23,06,09,15.80
2013,06,23,06,10,15.80
2013,06,23,06,11,15.80
2013,06,23,06,12,15.80
2013,06,23,06,13,15.80
2013,06,23,06,14,15.80
2013,06,23,06,15,15.80
2013,06,23,06,16,15.80
2013,06,23,06,17,15.90
2013,06,23,06,18,15.90
2013,06,23,06,19,15.90
2013,06,23,06,20,15.90
2013,06,23,06,21,15.90
2013,06,23,06,22,15.90
2013,06,23,06,23,15.90
2013,06,23,06,24,15.90
2013,06,23,06,25,15.90
2013,06,23,06,26,15.90
2013,06,23,06,27,15.90
2013,06,23,06,28,16.00
2013,06,23,06,29,16.10
2013,06,23,06,30,16.10
2013,06,23,06,31,16.10
2013,06,23,06,32,16.10
2013,06,23,06,33,16.10
2013,06,23,06,34,16.10
2013,06,23,06,35,16.10
2013,06,23,06,36,16.10
2013,06,23,06,37,16.10
2013,06,23,06,38,16.10
2013,06,23,06,39,16.10
2013,06,23,06,40,16.10
2013,06,23,06,41,16.10
2013,06,23,06,42,16.10
2013,06,23,06,43,16.10
2013,06,23,06,44,16.10
2013,06,23,06,45,16.10
2013,06,23,06,46,16.10
2013,06,23,06,47,16.10
2013,06,23,06,48,16.10
2013,06,23,06,49,16.10
2013,06,23,06,50,16.10
2013,06,23,06,51,16.10
2013,06,23,06,52,16.10
2013,06,23,06,53,16.10
2013,06,23,06,54,16.10
2013,06,23,06,55,16.20
2013,06,23,06,56,16.20
2013,06,23,06,57,16.20
2013,06,23,06,58,16.20
2013,06,23,06,59,16.20
2013,06,23,07,00,16.20
2013,06,23,07,01,16.20
2013,06,23,07,02,16.20
2013,06,23,07,03,16.20
2013,06,23,07,04,16.20
2013,06,23,07,05,16.20
2013,06,23,07,06,16.20
2013,06,23,07,07,16.20
2013,06,23,07,08,16.20
2013,06,23,07,09,16.20
2013,06,23,07,10,16.20
2013,06,23,07,11,16.20
2013,06,23,07,12,16.30
2013,06,23,07,13,16.30
2013,06,23,07,14,16.30
2013,06,23,07,15,16.30
2013,06,23,07,16,16.30
2013,06,23,07,17,16.30
2013,06,23,07,18,16.30
2013,06,23,07,19,16.30
2013,06,23,07,20,16.30
2013,06,23,07,21,16.30
2013,06,23,07,22,16.30
2013,06,23,07,23,16.30
2013,06,23,07,24,16.30
2013,06,23,07,25,16.30
2013,06,23,07,26,16.30
2013,06,23,07,27,16.30
2013,06,23,07,28,16.30
2013,06,23,07,29,16.30
2013,06,23,07,30,16.40
2013,06,23,07,31,16.40
2013,06,23,07,32,16.40
2013,06,23,07,33,16.40
2013,06,23,07,34,16.40
2013,06,23,07,35,16.40
2013,06,23,07,36,16.40
2013,06,23,07,37,16.40
2013,06,23,07,38,16.40
2013,06,23,07,39,16.40
2013,06,23,07,40,16.40
2013,06,23,07,41,16.40
2013,06,23,07,42,16.40
2013,06,23,07,43,16.40
2013,06,23,07,44,16.40
2013,06,23,07,45,16.60
2013,06,23,07,46,16.50
2013,06,23,07,47,16.50
2013,06,23,07,48,16.60
2013,06,23,07,49,16.60
2013,06,23,07,50,16.40
2013,06,23,07,51,16.40
2013,06,23,07,52,16.40
2013,06,23,07,53,16.40
2013,06,23,07,54,16.40
2013,06,23,07,55,16.40
2013,06,23,07,56,16.40
2013,06,23,07,57,16.40
2013,06,23,07,58,16.40
2013,06,23,07,59,16.40
2013,06,23,08,00,16.40
2013,06,23,08,01,16.40
2013,06,23,08,02,16.40
2013,06,23,08,03,16.40
2013,06,23,08,04,16.40
2013,06,23,08,05,16.40
2013,06,23,08,06,16.40
2013,06,23,08,07,16.40
2013,06,23,08,08,16.40
2013,06,23,08,09,16.40
2013,06,23,08,10,16.40
2013,06,23,08,11,16.40
2013,06,23,08,12,16.40
2013,06,23,08,13,16.40
2013,06,23,08,14,16.40
2013,06,23,08,15,16.40
2013,06,23,08,16,16.40
2013,06,23,08,17,16.40
2013,06,23,08,18,16.40
2013,06,23,08,19,16.40
2013,06,23,08,20,16.40
2013,06,23,08,21,16.40
2013,06,23,08,22,16.40
2013,06,23,08,23,16.40
2013,06,23,08,24,16.40
2013,06,23,08,25,16.40
2013,06,23,08,26,16.40
2013,06,23,08,27,16.40
2013,06,23,08,28,16.40
2013,06,23,08,29,16.40
2013,06,23,08,30,16.40
2013,06,23,08,31,16.40
2013,06,23,08,32,16.40
2013,06,23,08,33,16.40
2013,06,23,08,34,16.40
2013,06,23,08,35,16.40
2013,06,23,08,36,16.40
2013,06,23,08,37,16.40
2013,06,23,08,38,16.40
2013,06,23,08,39,16.40
2013,06,23,08,40,16.40
2013,06,23,08,41,16.50
2013,06,23,08,42,16.60
2013,06,23,08,43,16.60
2013,06,23,08,44,16.60
2013,06,23,08,45,16.60
2013,06,23,08,46,16.60
2013,06,23,08,47,16.60
2013,06,23,08,48,16.60
2013,06,23,08,49,16.60
2013,06,23,08,50,16.60
2013,06,23,08,51,16.60
2013,06,23,08,52,16.60
2013,06,23,08,53,16.50
2013,06,23,08,54,16.40
2013,06,23,08,55,16.40
2013,06,23,08,56,16.40
2013,06,23,08,57,16.40
2013,06,23,08,58,16.40
2013,06,23,08,59,16.40
2013,06,23,09,00,16.40
2013,06,23,09,01,16.40
2013,06,23,09,02,16.40
2013,06,23,09,03,16.50
2013,06,23,09,04,16.60
2013,06,23,09,05,16.60
2013,06,23,09,06,16.70
2013,06,23,09,07,16.70
2013,06,23,09,08,16.70
2013,06,23,09,09,16.70
2013,06,23,09,10,16.70
2013,06,23,09,11,16.70
2013,06,23,09,12,16.80
2013,06,23,09,13,16.80
2013,06,23,09,14,16.90
2013,06,23,09,15,16.90
2013,06,23,09,16,16.90
2013,06,23,09,17,16.90
2013,06,23,09,18,16.90
2013,06,23,09,19,16.90
2013,06,23,09,20,16.90
2013,06,23,09,21,16.90
2013,06,23,09,22,17.00
2013,06,23,09,23,17.00
2013,06,23,09,24,17.00
2013,06,23,09,25,16.90
2013,06,23,09,26,16.90
2013,06,23,09,27,16.90
2013,06,23,09,28,16.90
2013,06,23,09,29,16.90
2013,06,23,09,30,16.80
2013,06,23,09,31,16.80
2013,06,23,09,32,16.80
2013,06,23,09,33,16.90
2013,06,23,09,34,16.90
2013,06,23,09,35,16.90
2013,06,23,09,36,16.90
2013,06,23,09,37,16.90
2013,06,23,09,38,16.90
2013,06,23,09,39,16.90
2013,06,23,09,40,16.90
2013,06,23,09,41,16.90
2013,06,23,09,42,16.90
2013,06,23,09,43,16.90
2013,06,23,09,44,16.90
2013,06,23,09,45,16.90
2013,06,23,09,46,16.90
2013,06,23,09,47,16.90
2013,06,23,09,48,16.90
2013,06,23,09,49,16.90
2013,06,23,09,50,16.90
2013,06,23,09,51,17.00
2013,06,23,09,52,17.00
2013,06,23,09,53,17.00
2013,06,23,09,54,17.00
2013,06,23,09,55,17.00
2013,06,23,09,56,17.00
2013,06,23,09,57,17.00
2013,06,23,09,58,17.00
2013,06,23,09,59,17.00
2013,06,23,10,00,17.00
2013,06,23,10,01,17.10
2013,06,23,10,02,17.10
2013,06,23,10,03,17.10
2013,06,23,10,04,17.10
2013,06,23,10,05,17.10
2013,06,23,10,06,17.20
2013,06,23,10,07,17.20
2013,06,23,10,08,17.20
2013,06,23,10,09,17.20
2013,06,23,10,10,17.30
2013,06,23,10,11,17.30
2013,06,23,10,12,17.30
2013,06,23,10,13,17.30
2013,06,23,10,14,17.30
2013,06,23,10,15,17.30
2013,06,23,10,16,17.20
2013,06,23,10,17,17.20
2013,06,23,10,18,17.20
2013,06,23,10,19,17.20
2013,06,23,10,20,17.20
2013,06,23,10,21,17.10
2013,06,23,10,22,17.10
2013,06,23,10,23,17.10
2013,06,23,10,24,17.10
2013,06,23,10,25,17.10
2013,06,23,10,26,17.00
2013,06,23,10,27,17.00
2013,06,23,10,28,17.00
2013,06,23,10,29,17.00
2013,06,23,10,30,17.00
2013,06,23,10,31,17.00
2013,06,23,10,32,17.00
2013,06,23,10,33,17.00
2013,06,23,10,34,17.00
2013,06,23,10,35,17.00
2013,06,23,10,36,16.90
2013,06,23,10,37,16.90
2013,06,23,10,38,16.90
2013,06,23,10,39,16.90
2013,06,23,10,40,16.90
2013,06,23,10,41,16.90
2013,06,23,10,42,17.00
2013,06,23,10,43,17.00
2013,06,23,10,44,17.00
2013,06,23,10,45,17.00
2013,06,23,10,46,17.10
2013,06,23,10,47,17.10
2013,06,23,10,48,17.10
2013,06,23,10,49,17.10
2013,06,23,10,50,17.20
2013,06,23,10,51,17.20
2013,06,23,10,52,17.10
2013,06,23,10,53,17.10
2013,06,23,10,54,17.10
2013,06,23,10,55,17.10
2013,06,23,10,56,17.10
2013,06,23,10,57,17.10
2013,06,23,10,58,17.10
2013,06,23,10,59,17.20
2013,06,23,11,00,17.20
2013,06,23,11,01,17.20
2013,06,23,11,02,17.20
2013,06,23,11,03,17.20
2013,06,23,11,04,17.20
2013,06,23,11,05,17.30
2013,06,23,11,06,17.30
2013,06,23,11,07,17.30
2013,06,23,11,08,17.30
2013,06,23,11,09,17.30
2013,06,23,11,10,17.30
2013,06,23,11,11,17.40
2013,06,23,11,12,17.40
2013,06,23,11,13,17.40
2013,06,23,11,14,17.50
2013,06,23,11,15,17.50
2013,06,23,11,16,17.50
2013,06,23,11,17,17.60
2013,06,23,11,18,17.60
2013,06,23,11,19,17.60
2013,06,23,11,20,17.70
2013,06,23,11,21,17.70
2013,06,23,11,22,17.70
2013,06,23,11,23,17.80
2013,06,23,11,24,17.80
2013,06,23,11,25,17.80
2013,06,23,11,26,17.90
2013,06,23,11,27,17.90
2013,06,23,11,28,17.90
2013,06,23,11,29,17.90
2013,06,23,11,30,17.90
2013,06,23,11,31,17.90
2013,06,23,11,32,17.90
2013,06,23,11,33,17.90
2013,06,23,11,34,17.90
2013,06,23,11,35,17.90
2013,06,23,11,36,17.90
2013,06,23,11,37,17.80
2013,06,23,11,38,17.80
2013,06,23,11,39,17.80
2013,06,23,11,40,17.80
2013,06,23,11,41,17.80
2013,06,23,11,42,17.70
2013,06,23,11,43,17.70
2013,06,23,11,44,17.70
2013,06,23,11,45,17.70
2013,06,23,11,46,17.70
2013,06,23,11,47,17.70
2013,06,23,11,48,17.60
2013,06,23,11,49,17.60
2013,06,23,11,50,17.50
2013,06,23,11,51,17.50
2013,06,23,11,52,17.50
2013,06,23,11,53,17.50
2013,06,23,11,54,17.50
2013,06,23,11,55,17.50
2013,06,23,11,56,17.40
2013,06,23,11,57,17.40
2013,06,23,11,58,17.40
2013,06,23,11,59,17.30
2013,06,23,12,00,17.30
2013,06,23,12,01,17.30
2013,06,23,12,02,17.30
2013,06,23,12,03,17.20
2013,06,23,12,04,17.20
2013,06,23,12,05,17.20
2013,06,23,12,06,17.20
2013,06,23,12,07,17.20
2013,06,23,12,08,17.10
2013,06,23,12,09,17.10
2013,06,23,12,10,17.10
2013,06,23,12,11,17.10
2013,06,23,12,12,17.10
2013,06,23,12,13,17.10
2013,06,23,12,14,17.10
2013,06,23,12,15,17.10
2013,06,23,12,16,17.10
2013,06,23,12,17,17.10
2013,06,23,12,18,17.10
2013,06,23,12,19,17.10
2013,06,23,12,20,17.10
2013,06,23,12,21,17.10
2013,06,23,12,22,17.10
2013,06,23,12,23,17.10
2013,06,23,12,24,17.10
2013,06,23,12,25,17.10
2013,06,23,12,26,17.10
2013,06,23,12,27,17.10
2013,06,23,12,28,17.00
2013,06,23,12,29,17.00
2013,06,23,12,30,17.00
2013,06,23,12,31,17.00
2013,06,23,12,32,17.00
2013,06,23,12,33,17.10
2013,06,23,12,34,17.00
2013,06,23,12,35,17.10
2013,06,23,12,36,17.10
2013,06,23,12,37,17.10
2013,06,23,12,38,17.10
2013,06,23,12,39,17.10
2013,06,23,12,40,17.20
2013,06,23,12,41,17.20
2013,06,23,12,42,17.30
2013,06,23,12,43,17.30
2013,06,23,12,44,17.30
2013,06,23,12,45,17.30
2013,06,23,12,46,17.30
2013,06,23,12,47,17.40
2013,06,23,12,48,17.40
2013,06,23,12,49,17.50
2013,06,23,12,50,17.50
2013,06,23,12,51,17.60
2013,06,23,12,52,17.60
2013,06,23,12,53,17.70
2013,06,23,12,54,17.70
2013,06,23,12,55,17.70
2013,06,23,12,56,17.70
2013,06,23,12,57,17.80
2013,06,23,12,58,17.80
2013,06,23,12,59,17.90
2013,06,23,13,00,17.90
2013,06,23,13,01,17.90
2013,06,23,13,02,17.90
2013,06,23,13,03,18.00
2013,06,23,13,04,18.10
2013,06,23,13,05,18.10
2013,06,23,13,06,18.10
2013,06,23,13,07,18.20
2013,06,23,13,08,18.20
2013,06,23,13,09,18.20
2013,06,23,13,10,18.30
2013,06,23,13,11,18.40
2013,06,23,13,12,18.40
2013,06,23,13,13,18.40
2013,06,23,13,14,18.50
2013,06,23,13,15,18.50
2013,06,23,13,16,18.50
2013,06,23,13,17,18.60
2013,06,23,13,18,18.60
2013,06,23,13,19,18.60
2013,06,23,13,20,18.50
2013,06,23,13,21,18.50
2013,06,23,13,22,18.50
2013,06,23,13,23,18.40
2013,06,23,13,24,18.40
2013,06,23,13,25,18.40
2013,06,23,13,26,18.40
2013,06,23,13,27,18.50
2013,06,23,13,28,18.50
2013,06,23,13,29,18.60
2013,06,23,13,30,18.60
2013,06,23,13,31,18.60
2013,06,23,13,32,18.70
2013,06,23,13,33,18.70
2013,06,23,13,34,18.80
2013,06,23,13,35,18.70
2013,06,23,13,36,18.70
2013,06,23,13,37,18.60
2013,06,23,13,38,18.60
2013,06,23,13,39,18.70
2013,06,23,13,40,18.70
2013,06,23,13,41,18.70
2013,06,23,13,42,18.80
2013,06,23,13,43,18.80
2013,06,23,13,44,18.90
2013,06,23,13,45,18.90
2013,06,23,13,46,18.80
2013,06,23,13,47,18.80
2013,06,23,13,48,18.70
2013,06,23,13,49,18.70
2013,06,23,13,50,18.70
2013,06,23,13,51,18.70
2013,06,23,13,52,18.70
2013,06,23,13,53,18.70
2013,06,23,13,54,18.70
2013,06,23,13,55,18.70
2013,06,23,13,56,18.70
2013,06,23,13,57,18.80
2013,06,23,13,58,18.80
2013,06,23,13,59,18.80
2013,06,23,14,00,18.80
2013,06,23,14,01,18.80
2013,06,23,14,02,18.80
2013,06,23,14,03,18.90
2013,06,23,14,04,18.90
2013,06,23,14,05,18.80
2013,06,23,14,06,18.80
2013,06,23,14,07,18.80
2013,06,23,14,08,18.70
2013,06,23,14,09,18.70
2013,06,23,14,10,18.60
2013,06,23,14,11,18.50
2013,06,23,14,12,18.50
2013,06,23,14,13,18.30
2013,06,23,14,14,18.20
2013,06,23,14,15,18.20
2013,06,23,14,16,18.20
2013,06,23,14,17,18.10
2013,06,23,14,18,18.00
2013,06,23,14,19,17.90
2013,06,23,14,20,17.90
2013,06,23,14,21,17.80
2013,06,23,14,22,17.80
2013,06,23,14,23,17.80
2013,06,23,14,24,17.70
2013,06,23,14,25,17.70
2013,06,23,14,26,17.70
2013,06,23,14,27,17.70
2013,06,23,14,28,17.70
2013,06,23,14,29,17.70
2013,06,23,14,30,17.70
2013,06,23,14,31,17.70
2013,06,23,14,32,17.70
2013,06,23,14,33,17.70
2013,06,23,14,34,17.70
2013,06,23,14,35,17.70
2013,06,23,14,36,17.70
2013,06,23,14,37,17.70
2013,06,23,14,38,17.80
2013,06,23,14,39,17.80
2013,06,23,14,40,17.90
2013,06,23,14,41,17.90
2013,06,23,14,42,17.90
2013,06,23,14,43,17.90
2013,06,23,14,44,17.90
2013,06,23,14,45,17.90
2013,06,23,14,46,18.00
2013,06,23,14,47,18.10
2013,06,23,14,48,18.10
2013,06,23,14,49,18.20
2013,06,23,14,50,18.30
2013,06,23,14,51,18.30
2013,06,23,14,52,18.30
2013,06,23,14,53,18.40
2013,06,23,14,54,18.50
2013,06,23,14,55,18.50
2013,06,23,14,56,18.50
2013,06,23,14,57,18.50
2013,06,23,14,58,18.50
2013,06,23,14,59,18.40
2013,06,23,15,00,18.40
2013,06,23,15,01,18.50
2013,06,23,15,02,18.50
2013,06,23,15,03,18.60
2013,06,23,15,04,18.60
2013,06,23,15,05,18.70
2013,06,23,15,06,18.70
2013,06,23,15,07,18.70
2013,06,23,15,08,18.80
2013,06,23,15,09,18.80
2013,06,23,15,10,18.80
2013,06,23,15,11,18.80
2013,06,23,15,12,18.90
2013,06,23,15,13,18.90
2013,06,23,15,14,18.90
2013,06,23,15,15,18.90
2013,06,23,15,16,18.90
2013,06,23,15,17,18.90
2013,06,23,15,18,18.90
2013,06,23,15,19,18.90
2013,06,23,15,20,18.90
2013,06,23,15,21,18.90
2013,06,23,15,22,18.90
2013,06,23,15,23,18.90
2013,06,23,15,24,18.90
2013,06,23,15,25,18.90
2013,06,23,15,26,18.90
2013,06,23,15,27,18.90
2013,06,23,15,28,18.90
2013,06,23,15,29,18.80
2013,06,23,15,30,18.80
2013,06,23,15,31,18.80
2013,06,23,15,32,18.80
2013,06,23,15,33,18.80
2013,06,23,15,34,18.80
2013,06,23,15,35,18.80
2013,06,23,15,36,18.80
2013,06,23,15,37,18.90
2013,06,23,15,38,18.90
2013,06,23,15,39,18.90
2013,06,23,15,40,18.90
2013,06,23,15,41,18.90
2013,06,23,15,42,18.90
2013,06,23,15,43,18.90
2013,06,23,15,44,18.90
2013,06,23,15,45,18.90
2013,06,23,15,46,18.90
2013,06,23,15,47,18.90
2013,06,23,15,48,18.90
2013,06,23,15,49,18.90
2013,06,23,15,50,19.00
2013,06,23,15,51,19.10
2013,06,23,15,52,19.10
2013,06,23,15,53,19.10
2013,06,23,15,54,19.10
2013,06,23,15,55,19.10
2013,06,23,15,56,19.10
2013,06,23,15,57,19.10
2013,06,23,15,58,19.10
2013,06,23,15,59,19.10
2013,06,23,16,00,19.10
2013,06,23,16,01,19.10
2013,06,23,16,02,19.20
2013,06,23,16,03,19.20
2013,06,23,16,04,19.20
2013,06,23,16,05,19.30
2013,06,23,16,06,19.30
2013,06,23,16,07,19.30
2013,06,23,16,08,19.30
2013,06,23,16,09,19.40
2013,06,23,16,10,19.40
2013,06,23,16,11,19.40
2013,06,23,16,12,19.40
2013,06,23,16,13,19.40
2013,06,23,16,14,19.30
2013,06,23,16,15,19.30
2013,06,23,16,16,19.30
2013,06,23,16,17,19.30
2013,06,23,16,18,19.30
2013,06,23,16,19,19.30
2013,06,23,16,20,19.30
2013,06,23,16,21,19.30
2013,06,23,16,22,19.30
2013,06,23,16,23,19.30
2013,06,23,16,24,19.30
2013,06,23,16,25,19.40
2013,06,23,16,26,19.40
2013,06,23,16,27,19.30
2013,06,23,16,28,19.30
2013,06,23,16,29,19.30
2013,06,23,16,30,19.30
2013,06,23,16,31,19.30
2013,06,23,16,32,19.20
2013,06,23,16,33,19.20
2013,06,23,16,34,19.20
2013,06,23,16,35,19.20
2013,06,23,16,36,19.20
2013,06,23,16,37,19.10
2013,06,23,16,38,19.10
2013,06,23,16,39,19.10
2013,06,23,16,40,19.10
2013,06,23,16,41,19.10
2013,06,23,16,42,19.10
2013,06,23,16,43,19.10
2013,06,23,16,44,19.10
2013,06,23,16,45,19.10
2013,06,23,16,46,19.10
2013,06,23,16,47,19.10
2013,06,23,16,48,19.10
2013,06,23,16,49,19.20
2013,06,23,16,50,19.20
2013,06,23,16,51,19.20
2013,06,23,16,52,19.20
2013,06,23,16,53,19.20
2013,06,23,16,54,19.30
2013,06,23,16,55,19.30
2013,06,23,16,56,19.30
2013,06,23,16,57,19.40
2013,06,23,16,58,19.40
2013,06,23,16,59,19.40
2013,06,23,17,00,19.50
2013,06,23,17,01,19.50
2013,06,23,17,02,19.60
2013,06,23,17,03,19.60
2013,06,23,17,04,19.60
2013,06,23,17,05,19.70
2013,06,23,17,06,19.70
2013,06,23,17,07,19.80
2013,06,23,17,08,19.80
2013,06,23,17,09,19.80
2013,06,23,17,10,19.90
2013,06,23,17,11,19.90
2013,06,23,17,12,19.90
2013,06,23,17,13,19.90
2013,06,23,17,14,19.90
2013,06,23,17,15,19.90
2013,06,23,17,16,19.90
2013,06,23,17,17,19.90
2013,06,23,17,18,19.90
2013,06,23,17,19,19.90